STARLINK-1280, 45388

Orbit data source: Space-Track

STARLINK-1280, 45388 is a payload satellite owned by SpaceX/Seattle (US) in LEO that was launched on Wed, 18 Mar 2020 UTC via an FALCON 9 launch vehicle from the Air Force Eastern Test Range (AFETR). Payload-class satellites include a variety of spacecraft equipped with specific instruments for various scientific and technological missions. These include communications satellites like Starlink; space stations such as the ISS; scientific satellites like the Hubble; Earth observation satellites from companies like Planet Labs, Umbra, and HawkEye 360; GPS; miniature CubeSats for education and research; and military/defense satellites.

Loading next visibility...
Identifier
45388, 2020-019AE
Orbit
LEO
Country
Flag of USUS
Related business
Manufacturer
SpaceX/Seattle
Mission
Partially operational Commercial Communications
Bus & Motor
STARLINK, Unknown motor
Mass
260 kg wet, ~248 kg dry
Launch date (UTC)
2020-03-18 (6 years ago)
Launch vehicle
FALCON 9
Launch site
Air Force Eastern Test Range (AFETR)
Object type
Payload
Rocket body
Debris
Shape & HBR
Box + 1 Pan, 10.1 m
Radar Cross Section
13.562 m², Large (>1 m²)

Expand to show TLE details & history
Last TLE update: 19 hours ago

TLE from 19 hours ago
0 STARLINK-1280
1 45388U 20019AE  26073.50163309  .00073646  00000-0  70291-3 0  9993
2 45388  53.0425  98.8402 0001573  83.9894 276.1300 15.66117485331096
Epoch: 2026-03-14T12:02Z
TLE epoch observation values (Epoch: 2026-03-14T12:02:21.098Z)
Latitude
-0.00005°
Longitude
106.13035°
Altitude
370.814 km
Speed
7.688 km/s
True Right ascension
06h 35m 21s
True Declination
0° 00' 00"
Sunlit
Object was in daylight at epoch
Visualization orbit readout
Latitude
Unknown
Longitude
Unknown
Altitude
Unknown
Speed
Unknown
Apparent Right ascension
Unknown
Apparent Declination
Unknown
Sunlit
N/A
Visualization observer readout
Local Sidereal Time
11:04:06
Azimuth
Unknown
Elevation
Unknown
Doppler factor
Unknown
Orbital elements
Apogee altitude
371.368 km
Perigee altitude
369.245 km
Semi-major axis
6,748.443 km
Eccentricity
0.00016
Inclination
53.0425°
RAAN
98.8402°
Arg. of periapsis
83.9894°
True anomaly
276.11208°
Mean anomaly
276.13°
Eccentric anomaly
276.12104°
Mean motion
3.91505 °/min
Orbital period
91.95 mins
BSTAR
0.00070291
Loading maneuver chart data...
Computing Atmospheric mass density...

Documentation

Showing up to 5 results
|